| time (UTC) | temp F | wind direction | speed MPH | gust MPH | rain 1hr in | rain 24hr in | rain mn in | humidity % | barometer mb |
| 20260508064029 | 53 | 118 | 1.0 | 3.0 | 0.00 | 0.00 | 0.00 | 77 | 1020.5 |
| 20260508063048 | 53 | 121 | 2.0 | 5.0 | 0.00 | 0.00 | 0.00 | 78 | 1020.6 |
| 20260508062027 | 50 | 131 | 1.0 | 2.0 | 0.00 | 0.00 | 0.00 | 82 | 1020.6 |
| 20260508061107 | 50 | 75 | 1.0 | 3.0 | 0.00 | 0.00 | 0.00 | 82 | 1020.5 |
| 20260508060025 | 50 | 108 | 3.0 | 4.0 | 0.00 | 0.00 | 0.00 | 82 | 1020.4 |
| 20260508055023 | 50 | 106 | 4.0 | 7.0 | 0.00 | 0.00 | 0.00 | 84 | 1020.5 |
| 20260508054022 | 49 | 103 | 5.0 | 10.0 | 0.00 | 0.00 | 0.00 | 86 | 1020.5 |
| 20260508053041 | 47 | 39 | 2.0 | 5.0 | 0.00 | 0.00 | 0.00 | 88 | 1020.5 |
| 20260508052020 | 46 | 152 | 2.0 | 5.0 | 0.00 | 0.00 | 0.00 | 89 | 1020.3 |
| 20260508051039 | 46 | 112 | 3.0 | 5.0 | 0.00 | 0.00 | 0.00 | 90 | 1020.3 |
| 20260508050037 | 45 | 137 | 6.0 | 8.0 | 0.00 | 0.00 | 0.00 | 91 | 1020.3 |
| 20260508045016 | 45 | 121 | 3.0 | 5.0 | 0.00 | 0.00 | 0.00 | 92 | 1020.4 |
| 20260508044116 | 44 | 125 | 4.0 | 7.0 | 0.00 | 0.00 | 0.00 | 95 | 1020.2 |
| 20260508043114 | 44 | 128 | 3.0 | 5.0 | 0.00 | 0.00 | 0.00 | 94 | 1020.1 |
| 20260508042133 | 44 | 132 | 5.0 | 6.0 | 0.00 | 0.00 | 0.00 | 94 | 1020.1 |
| 20260508041131 | 44 | 102 | 3.0 | 6.0 | 0.00 | 0.00 | 0.00 | 94 | 1020.1 |
| 20260508040111 | 44 | 141 | 3.0 | 5.0 | 0.00 | 0.00 | 0.00 | 94 | 1019.9 |
| 20260508035109 | 44 | 175 | 2.0 | 4.0 | 0.00 | 0.00 | 0.00 | 93 | 1020.0 |
| 20260508034108 | 44 | 151 | 4.0 | 8.0 | 0.00 | 0.00 | 0.00 | 94 | 1019.9 |
| 20260508033128 | 44 | 151 | 4.0 | 7.0 | 0.00 | 0.00 | 0.00 | 94 | 1020.1 |
| 20260508032106 | 44 | 113 | 4.0 | 6.0 | 0.00 | 0.00 | 0.00 | 94 | 1020.0 |
| 20260508031104 | 44 | 169 | 3.0 | 6.0 | 0.00 | 0.00 | 0.00 | 94 | 1020.0 |
| 20260508030104 | 44 | 115 | 4.0 | 7.0 | 0.00 | 0.00 | 0.00 | 94 | 1019.7 |
| 20260508025102 | 44 | 141 | 4.0 | 5.0 | 0.00 | 0.00 | 0.00 | 95 | 1019.7 |
| 20260508024101 | 44 | 135 | 3.0 | 5.0 | 0.00 | 0.00 | 0.00 | 94 | 1019.6 |
| 20260508023121 | 45 | 133 | 4.0 | 6.0 | 0.00 | 0.00 | 0.00 | 94 | 1019.7 |
| 20260508022058 | 45 | 136 | 3.0 | 4.0 | 0.00 | 0.00 | 0.00 | 94 | 1019.6 |
| 20260508021058 | 45 | 128 | 3.0 | 4.0 | 0.00 | 0.00 | 0.00 | 94 | 1019.6 |
| 20260508020056 | 45 | 144 | 3.0 | 3.0 | 0.00 | 0.00 | 0.00 | 94 | 1019.6 |
| 20260508015055 | 45 | 120 | 2.0 | 3.0 | 0.00 | 0.00 | 0.00 | 93 | 1019.7 |
| 20260508014054 | 45 | 142 | 4.0 | 5.0 | 0.00 | 0.00 | 0.00 | 94 | 1019.7 |
| 20260508013114 | 45 | 118 | 3.0 | 6.0 | 0.00 | 0.00 | 0.00 | 93 | 1019.6 |
| 20260508012052 | 45 | 136 | 3.0 | 4.0 | 0.00 | 0.00 | 0.00 | 93 | 1019.7 |
| 20260508011111 | 46 | 146 | 3.0 | 4.0 | 0.00 | 0.00 | 0.00 | 93 | 1019.7 |
| 20260508010049 | 46 | 141 | 4.0 | 4.0 | 0.00 | 0.00 | 0.00 | 92 | 1019.6 |
| 20260508005047 | 46 | 142 | 2.0 | 4.0 | 0.00 | 0.00 | 0.00 | 92 | 1019.6 |
| 20260508004047 | 46 | 140 | 3.0 | 5.0 | 0.00 | 0.00 | 0.00 | 92 | 1019.6 |
| 20260508003107 | 46 | 138 | 3.0 | 3.0 | 0.00 | 0.00 | 0.00 | 91 | 1019.6 |
| 20260508002044 | 47 | 149 | 3.0 | 4.0 | 0.00 | 0.00 | 0.00 | 91 | 1019.5 |
| 20260508001044 | 47 | 110 | 4.0 | 5.0 | 0.00 | 0.00 | 0.00 | 91 | 1019.6 |
| 20260508000042 | 47 | 110 | 4.0 | 6.0 | 0.00 | 0.00 | 0.00 | 91 | 1019.6 |
| 20260507235041 | 47 | 119 | 4.0 | 4.0 | 0.00 | 0.00 | 0.00 | 90 | 1019.6 |
| 20260507234041 | 48 | 150 | 3.0 | 3.0 | 0.00 | 0.00 | 0.00 | 90 | 1019.7 |
| 20260507233038 | 48 | 134 | 3.0 | 4.0 | 0.00 | 0.00 | 0.00 | 90 | 1019.7 |
| 20260507232057 | 48 | 127 | 3.0 | 4.0 | 0.00 | 0.00 | 0.00 | 91 | 1019.8 |
| 20260507231036 | 49 | 113 | 3.0 | 4.0 | 0.00 | 0.00 | 0.00 | 90 | 1020.0 |
| 20260507230035 | 49 | 158 | 3.0 | 4.0 | 0.00 | 0.00 | 0.00 | 90 | 1019.9 |
| 20260507225034 | 49 | 116 | 2.0 | 2.0 | 0.00 | 0.00 | 0.00 | 90 | 1020.0 |
| 20260507224033 | 49 | 104 | 1.0 | 2.0 | 0.00 | 0.00 | 0.00 | 89 | 1020.0 |
| 20260507223031 | 50 | 120 | 2.0 | 3.0 | 0.00 | 0.00 | 0.00 | 88 | 1020.1 |
| 20260507222030 | 51 | 94 | 2.0 | 4.0 | 0.00 | 0.00 | 0.00 | 88 | 1020.1 |
| 20260507221029 | 51 | 70 | 2.0 | 3.0 | 0.00 | 0.00 | 0.00 | 88 | 1020.2 |
| 20260507220047 | 51 | 125 | 2.0 | 2.0 | 0.00 | 0.00 | 0.00 | 87 | 1020.2 |
| 20260507215026 | 51 | 104 | 2.0 | 3.0 | 0.00 | 0.00 | 0.00 | 86 | 1020.2 |
| 20260507214046 | 51 | 121 | 2.0 | 3.0 | 0.00 | 0.00 | 0.00 | 86 | 1020.0 |
| 20260507213024 | 51 | 114 | 2.0 | 2.0 | 0.00 | 0.00 | 0.00 | 85 | 1020.0 |
| 20260507212023 | 52 | 93 | 2.0 | 3.0 | 0.00 | 0.00 | 0.00 | 85 | 1020.0 |
| 20260507211021 | 52 | 97 | 3.0 | 4.0 | 0.00 | 0.00 | 0.00 | 83 | 1019.9 |
| 20260507210120 | 52 | 154 | 3.0 | 3.0 | 0.00 | 0.00 | 0.00 | 80 | 1019.9 |
| 20260507205100 | 52 | 144 | 2.0 | 4.0 | 0.00 | 0.00 | 0.00 | 83 | 1020.0 |
| 20260507204019 | 52 | 144 | 3.0 | 5.0 | 0.00 | 0.00 | 0.00 | 81 | 1020.0 |
| 20260507203017 | 53 | 129 | 2.0 | 3.0 | 0.00 | 0.00 | 0.00 | 82 | 1019.9 |
| 20260507202016 | 53 | 116 | 2.0 | 3.0 | 0.00 | 0.00 | 0.00 | 80 | 1019.8 |
| 20260507201115 | 53 | 130 | 1.0 | 2.0 | 0.00 | 0.00 | 0.00 | 81 | 1019.7 |
| 20260507200114 | 54 | 83 | 3.0 | 5.0 | 0.00 | 0.00 | 0.00 | 76 | 1019.7 |
| 20260507195113 | 54 | 133 | 1.0 | 2.0 | 0.00 | 0.00 | 0.00 | 75 | 1019.6 |
| 20260507194111 | 54 | 138 | 0.0 | 2.0 | 0.00 | 0.00 | 0.00 | 75 | 1019.5 |
| 20260507193110 | 55 | 125 | 2.0 | 2.0 | 0.00 | 0.00 | 0.00 | 74 | 1019.4 |
| 20260507192108 | 55 | 83 | 2.0 | 3.0 | 0.00 | 0.00 | 0.00 | 73 | 1019.4 |
| 20260507191128 | 56 | 126 | 3.0 | 4.0 | 0.00 | 0.00 | 0.00 | 72 | 1019.4 |
| 20260507190106 | 56 | 115 | 4.0 | 4.0 | 0.00 | 0.00 | 0.00 | 71 | 1019.2 |
| 20260507185105 | 0 | 0.0 | 0.0 | 0.00 | 0.00 | 0.00 | 1019.1 | ||
| 20260507184103 | 0 | 0.0 | 0.0 | 0.00 | 0.00 | 0.00 | 1019.2 | ||
| 20260507183103 | 58 | 5 | 4.0 | 6.0 | 0.00 | 0.00 | 0.00 | 63 | 1019.2 |
| 20260507182101 | 58 | 12 | 4.0 | 6.0 | 0.00 | 0.00 | 0.00 | 63 | 1019.1 |
| 20260507181100 | 59 | 37 | 4.0 | 7.0 | 0.00 | 0.00 | 0.00 | 61 | 1019.1 |
| 20260507180059 | 60 | 29 | 6.0 | 9.0 | 0.00 | 0.00 | 0.00 | 60 | 1018.9 |
| 20260507175057 | 60 | 29 | 6.0 | 9.0 | 0.00 | 0.00 | 0.00 | 59 | 1018.8 |
| 20260507174056 | 60 | 34 | 6.0 | 9.0 | 0.00 | 0.00 | 0.00 | 58 | 1018.8 |
| 20260507173116 | 60 | 25 | 7.0 | 10.0 | 0.00 | 0.00 | 0.00 | 57 | 1018.8 |
| 20260507172054 | 61 | 25 | 9.0 | 13.0 | 0.00 | 0.00 | 0.00 | 56 | 1018.7 |
| 20260507171052 | 61 | 20 | 7.0 | 14.0 | 0.00 | 0.00 | 0.00 | 55 | 1018.6 |
| 20260507170052 | 61 | 36 | 6.0 | 10.0 | 0.00 | 0.00 | 0.00 | 56 | 1018.5 |
| 20260507165051 | 61 | 35 | 5.0 | 6.0 | 0.00 | 0.00 | 0.00 | 56 | 1018.5 |
| 20260507164049 | 61 | 40 | 5.0 | 9.0 | 0.00 | 0.00 | 0.00 | 55 | 1018.5 |
| 20260507163048 | 62 | 43 | 6.0 | 11.0 | 0.00 | 0.00 | 0.00 | 54 | 1018.5 |
| 20260507162047 | 63 | 343 | 4.0 | 7.0 | 0.00 | 0.00 | 0.00 | 54 | 1018.4 |
| 20260507161045 | 63 | 18 | 6.0 | 9.0 | 0.00 | 0.00 | 0.00 | 55 | 1018.5 |
| 20260507160044 | 61 | 0 | 4.0 | 8.0 | 0.00 | 0.00 | 0.00 | 57 | 1018.4 |
| 20260507155103 | 61 | 3 | 5.0 | 8.0 | 0.00 | 0.00 | 0.00 | 58 | 1018.5 |
| 20260507154042 | 62 | 349 | 5.0 | 8.0 | 0.00 | 0.00 | 0.00 | 55 | 1018.4 |
| 20260507153042 | 61 | 30 | 3.0 | 5.0 | 0.00 | 0.00 | 0.00 | 55 | 1018.4 |
| 20260507152040 | 61 | 31 | 4.0 | 6.0 | 0.00 | 0.00 | 0.00 | 57 | 1018.4 |
| 20260507151058 | 62 | 358 | 5.0 | 6.0 | 0.00 | 0.00 | 0.00 | 57 | 1018.6 |
| 20260507150037 | 62 | 15 | 7.0 | 10.0 | 0.00 | 0.00 | 0.00 | 57 | 1018.5 |
| 20260507145056 | 61 | 34 | 7.0 | 13.0 | 0.00 | 0.00 | 0.00 | 59 | 1018.5 |
| 20260507144034 | 62 | 336 | 2.0 | 7.0 | 0.00 | 0.00 | 0.00 | 58 | 1018.5 |
| 20260507143034 | 61 | 12 | 5.0 | 9.0 | 0.00 | 0.00 | 0.00 | 58 | 1018.5 |
| 20260507142032 | 61 | 329 | 4.0 | 8.0 | 0.00 | 0.00 | 0.00 | 59 | 1018.6 |
| 20260507141031 | 60 | 218 | 2.0 | 4.0 | 0.00 | 0.00 | 0.00 | 60 | 1018.5 |
| 20260507140030 | 60 | 48 | 3.0 | 6.0 | 0.00 | 0.00 | 0.00 | 62 | 1018.7 |
| 20260507135109 | 58 | 44 | 3.0 | 5.0 | 0.00 | 0.00 | 0.00 | 65 | 1018.8 |
| 20260507134028 | 57 | 67 | 5.0 | 7.0 | 0.00 | 0.00 | 0.00 | 68 | 1018.9 |
| 20260507133026 | 57 | 48 | 5.0 | 7.0 | 0.00 | 0.00 | 0.00 | 72 | 1019.0 |
| 20260507132046 | 56 | 50 | 6.0 | 9.0 | 0.00 | 0.00 | 0.00 | 76 | 1019.1 |
| 20260507131104 | 54 | 47 | 4.0 | 6.0 | 0.00 | 0.00 | 0.00 | 85 | 1019.2 |
| 20260507130023 | 57 | 330 | 6.0 | 15.0 | 0.00 | 0.00 | 0.00 | 76 | 1019.2 |
| 20260507125022 | 59 | 335 | 4.0 | 9.0 | 0.00 | 0.00 | 0.00 | 64 | 1019.0 |
| 20260507124020 | 59 | 25 | 5.0 | 8.0 | 0.00 | 0.00 | 0.00 | 63 | 1018.9 |
| 20260507123019 | 0 | 0.0 | 0.0 | 0.00 | 0.00 | 0.00 | 1018.9 | ||
| 20260507122039 | 0 | 0.0 | 0.0 | 0.00 | 0.00 | 0.00 | 1018.8 | ||
| 20260507121017 | 0 | 0.0 | 0.0 | 0.00 | 0.00 | 0.00 | 1018.9 | ||
| 20260507120116 | 0 | 0.0 | 0.0 | 0.00 | 0.00 | 0.00 | 1019.0 | ||
| 20260507115115 | 0 | 0.0 | 0.0 | 0.00 | 0.00 | 0.00 | 1019.0 | ||
| 20260507114113 | 0 | 0.0 | 0.0 | 0.00 | 0.00 | 0.00 | 1019.0 | ||
| 20260507113112 | 59 | 56 | 8.0 | 11.0 | 0.00 | 0.00 | 0.00 | 67 | 1019.2 |
| 20260507112111 | 59 | 227 | 2.0 | 4.0 | 0.00 | 0.00 | 0.00 | 63 | 1019.1 |
| 20260507111110 | 59 | 194 | 3.0 | 6.0 | 0.00 | 0.00 | 0.00 | 61 | 1019.2 |
| 20260507110109 | 60 | 179 | 6.0 | 7.0 | 0.00 | 0.00 | 0.00 | 61 | 1019.1 |
| 20260507105128 | 58 | 224 | 3.0 | 6.0 | 0.00 | 0.00 | 0.00 | 63 | 1019.3 |
| 20260507104107 | 57 | 35 | 3.0 | 3.0 | 0.00 | 0.00 | 0.00 | 66 | 1019.3 |
| 20260507103105 | 58 | 205 | 4.0 | 8.0 | 0.00 | 0.00 | 0.00 | 67 | 1019.3 |
| 20260507102105 | 57 | 199 | 3.0 | 4.0 | 0.00 | 0.00 | 0.00 | 71 | 1019.4 |
| 20260507101103 | 56 | 203 | 3.0 | 8.0 | 0.00 | 0.00 | 0.00 | 71 | 1019.4 |
| 20260507095100 | 56 | 19 | 3.0 | 6.0 | 0.00 | 0.00 | 0.00 | 75 | 1019.5 |
| 20260507094120 | 55 | 223 | 5.0 | 7.0 | 0.00 | 0.00 | 0.00 | 75 | 1019.5 |
| 20260507093058 | 54 | 169 | 2.0 | 5.0 | 0.00 | 0.00 | 0.00 | 78 | 1019.5 |
| 20260507092057 | 54 | 230 | 3.0 | 5.0 | 0.00 | 0.00 | 0.00 | 80 | 1019.6 |
| 20260507091056 | 52 | 235 | 2.0 | 3.0 | 0.00 | 0.00 | 0.00 | 86 | 1019.5 |
| 20260507090055 | 52 | 247 | 4.0 | 8.0 | 0.00 | 0.00 | 0.00 | 84 | 1019.6 |
| 20260507085053 | 52 | 298 | 3.0 | 6.0 | 0.00 | 0.00 | 0.00 | 85 | 1019.5 |
| 20260507084052 | 51 | 321 | 3.0 | 6.0 | 0.00 | 0.00 | 0.00 | 88 | 1019.5 |
| 20260507083051 | 51 | 0.0 | 4.0 | 0.00 | 0.00 | 0.00 | 87 | 1019.5 | |
| 20260507082051 | 51 | 238 | 2.0 | 4.0 | 0.00 | 0.00 | 0.00 | 87 | 1019.5 |
| 20260507081049 | 51 | 90 | 3.0 | 4.0 | 0.00 | 0.00 | 0.00 | 91 | 1019.5 |
| 20260507080048 | 50 | 126 | 4.0 | 6.0 | 0.00 | 0.00 | 0.00 | 92 | 1019.4 |
| 20260507075046 | 50 | 151 | 3.0 | 4.0 | 0.00 | 0.00 | 0.00 | 93 | 1019.5 |
| 20260507074045 | 0 | 0.0 | 0.0 | 0.00 | 0.00 | 0.00 | 1019.4 | ||
| 20260507073044 | 0 | 0.0 | 0.0 | 0.00 | 0.00 | 0.00 | 1019.3 | ||
| 20260507072103 | 0 | 0.0 | 0.0 | 0.00 | 0.00 | 0.00 | 1019.2 | ||
| 20260507071041 | 0 | 0.0 | 0.0 | 0.00 | 0.00 | 0.00 | 1019.3 | ||
| 20260507070101 | 0 | 0.0 | 0.0 | 0.00 | 0.00 | 0.00 | 1019.2 | ||
| 20260507065039 | 0 | 0.0 | 0.0 | 0.00 | 0.00 | 0.00 | 1019.1 |